Location: Monfort
(47.1967°N, 0.2115°W)
Time: 12:04:15
(UTC+00:00)

Cosmos 1553 Rocket - Pass Details

Date: 24 October 2020
Orbit: 940 x 1009 km, 82.9° (Epoch: 27 November)

Event Time Altitude Azimuth Distance (km) Brightness Sun altitude
Rises 19:05:48 0° 194° (SSW) 3,720 7.1 -22.6°
Reaches altitude 10° 19:08:21 10° 196° (SSW) 2,769 6.5 -23.0°
Maximum altitude 19:14:42 71° 280° (W) 1,051 4.3 -24.1°
Drops below altitude 10° 19:21:01 10° 5° (N) 2,747 6.4 -25.1°
Sets 19:23:32 0° 8° (N) 3,689 7.1 -25.5°
